Starlink 32789

operational
NORAD ID: 62529 Int'l Des: 2025-004 Owner: SPXS Country: US Constellation: starlink
LEOCIRCULAR

关于 Starlink 32789

正在加载描述...

实时位置

正在加载3D地球...

即将过境

高度历史

Altitude vs Time

uPlot chart will show altitude changes over time

两行轨道根数

1 62529U 25004U 25353.89409624 .00005732 00000-0 21763-3 0 9994
2 62529 42.9981 310.6206 0001098 266.0514 94.0212 15.27581821 54253
Epoch: Dec 19, 2025 • Age: 29 hours

当前状态

高度 486.7 km
速度 7.63 km/s
星下点 42.22°N, 101.34°W
发射日期 Jan 8, 2025
运行时间 0.9 years
类型 internet

技术详情

分类 Payload
质量 730.00 kg
干质量 700.00 kg
总质量 730.00 kg
长度 0.30 m
直径 4.10 m
跨度 29.00 m
形状 Box + pan
制造商 SPXS
平台类型 Starlink V2M
阶段状态 In Orbit
所有者/国家 SPXS/US

大型星座

Loading constellations...